Location: Poughquag
(41.6090°N, 73.6820°W)
Time: 17:36:11
(UTC-04:00)

STARLINK-1361 - Pass Details

Date: 29 May 2020
Orbit: 549 x 550 km, 53.0° (Epoch: 19 September)

Event Time Altitude Azimuth Distance (km) Brightness Sun altitude
Exits shadow 03:09:43 - 290° (WNW) 2,414 6.8 -19.1°
Reaches altitude 10° 03:11:41 10° 306° (NW) 1,811 6.3 -18.9°
Maximum altitude 03:14:35 18° 350° (N) 1,372 6.2 -18.6°
Drops below altitude 10° 03:17:30 10° 35° (NE) 1,822 7.6 -18.3°
Sets 03:20:19 0° 55° (NE) 2,718 8.5 -18.0°
